GW4676 Weather Reports


time (UTC)temp
C
wind
direction
speed
KPH
gust
KPH
rain 1hr
cm
rain 24hr
cm
rain mn
cm
humidity
%
barometer
mb
20260504013047 10 248 8.0 16.1 0.00 0.28 0.25 47 1012.2
20260504011542 10 219 8.0 19.3 0.00 0.28 0.25 47 1012.0
20260504010041 10 230 9.7 17.7 0.00 0.28 0.25 45 1012.1
20260504004548 11 234 12.9 19.3 0.03 0.28 0.25 44 1012.0
20260504003046 11 223 9.7 17.7 0.03 0.28 0.25 44 1011.9
20260504001558 11 216 9.7 17.7 0.03 0.28 0.25 44 1012.0
20260504000048 11 245 6.4 16.1 0.03 0.28 0.25 43 1012.0
20260503234541 12 267 8.0 19.3 0.00 0.28 0.23 42 1011.9
20260503233045 12 244 12.9 20.9 0.00 0.28 0.23 40 1011.9
20260503231543 12 208 11.3 20.9 0.00 0.28 0.23 40 1012.0
20260503230043 12 209 12.9 30.6 0.00 0.28 0.23 40 1011.9
20260503224545 12 228 12.9 29.0 0.00 0.30 0.23 39 1011.9
20260503223042 12 235 16.1 29.0 0.03 0.30 0.23 38 1011.9
20260503221549 12 204 8.0 17.7 0.03 0.30 0.23 39 1011.9
20260503220040 13 252 16.1 30.6 0.03 0.30 0.23 38 1011.9
20260503214544 13 275 8.0 24.1 0.03 0.30 0.23 39 1012.0
20260503213043 13 209 9.7 20.9 0.00 0.28 0.20 39 1011.9
20260503211542 12 215 16.1 27.4 0.00 0.28 0.20 38 1011.9
20260503210050 12 249 12.9 25.7 0.00 0.28 0.20 40 1011.9
20260503204550 12 228 9.7 24.1 0.00 0.30 0.20 40 1012.1
20260503203038 12 290 12.9 27.4 0.03 0.30 0.20 40 1012.0
20260503201546 12 306 9.7 27.4 0.03 0.30 0.20 38 1012.1
20260503200046 12 297 12.9 24.1 0.03 0.30 0.20 39 1012.3
20260503194605 12 300 4.8 24.1 0.03 0.30 0.20 44 1012.7
20260503193039 12 275 9.7 24.1 0.00 0.28 0.18 42 1012.9
20260503191546 12 283 6.4 24.1 0.00 0.28 0.18 42 1013.1
20260503190052 12 246 12.9 22.5 0.00 0.28 0.18 42 1013.3
20260503184544 12 290 14.5 29.0 0.03 0.30 0.18 42 1013.3
20260503183059 12 274 11.3 19.3 0.03 0.30 0.18 40 1013.6
20260503181547 11 213 12.9 25.7 0.03 0.30 0.18 41 1013.7
20260503180058 11 227 9.7 29.0 0.03 0.30 0.18 44 1013.8
20260503174544 11 207 16.1 30.6 0.00 0.30 0.15 42 1013.8
20260503173108 11 273 11.3 29.0 0.00 0.30 0.15 46 1014.0
20260503171549 10 286 12.9 30.6 0.00 0.30 0.15 44 1014.2
20260503081551 0 272 3.2 6.4 0.00 0.33 0.05 82 1014.2
20260503071546 0 272 4.8 9.7 0.03 0.33 0.05 79 1014.0
20260503054543 1 286 3.2 4.8 0.00 0.36 0.03 76 1014.2
20260503053050 1 288 3.2 6.4 0.00 0.36 0.03 75 1014.3
20260503051548 1 281 4.8 6.4 0.00 0.36 0.03 75 1014.4
20260503050047 1 293 4.8 12.9 0.03 0.36 0.03 74 1014.4
20260503044545 1 292 3.2 11.3 0.03 0.36 0.03 75 1014.5
20260503043046 2 289 3.2 4.8 0.03 0.36 0.03 74 1014.5
20260503041544 2 287 3.2 4.8 0.03 0.36 0.03 74 1014.5
20260503040049 2 282 3.2 4.8 0.00 0.33 0.00 74 1014.6
20260503034548 2 282 3.2 6.4 0.00 0.36 0.33 73 1014.6
20260503033034 2 295 3.2 4.8 0.00 0.36 0.33 72 1014.6
20260503031554 2 309 3.2 9.7 0.00 0.36 0.33 71 1014.6
20260503030047 2 278 4.8 8.0 0.00 0.36 0.33 70 1014.7
20260503024549 2 257 4.8 11.3 0.03 0.38 0.33 70 1014.9
20260503023050 2 282 4.8 6.4 0.03 0.38 0.33 70 1014.9
20260503021540 2 294 4.8 11.3 0.03 0.38 0.33 70 1014.8
20260503020035 2 274 3.2 8.0 0.03 0.38 0.33 70 1014.7
20260503014544 2 275 3.2 6.4 0.00 0.36 0.30 69 1014.7